Regional Weather Roundup
Issued by NWS Jackson, KY

Home | Current Version | Previous Version | Graphics & Text | Print | Product List | Glossary On
Versions: 1 2 3 4 5 6 7 8 9 10 11 12 13 14 15 16 17 18 19 20 21 22 23 24 25 26 27 28
000
ASUS43 KJKL 250810
RWRJKL

EAST KENTUCKY HOURLY WEATHER ROUNDUP
NATIONAL WEATHER SERVICE JACKSON KY
400 AM EDT THU AUG 25 2016

NOTE: "FAIR" INDICATES FEW OR NO CLOUDS BELOW 12,000 FEET WITH
NO SIGNIFICANT WEATHER AND/OR OBSTRUCTIONS TO VISIBILITY.

* THESE REPORTS ARE NOT UNDER NWS QUALITY CONTROL AND MAY NOT
  REPORT WEATHER SUCH AS PRECIPITATION AND FOG.

KYZ079-080-083-085-087-088-110-112-115-119-120-250900
...EASTERN KENTUCKY...

CITY           SKY/WX    TMP DP  RH WIND       PRES   REMARKS
JACKSON        CLEAR     74  69  85 CALM      30.16R
LONDON         CLEAR     71  68  90 CALM      30.16S
SOMERSET*      CLEAR     72  72 100 CALM      30.16R
MONTICELLO*    CLEAR    N/A N/A N/A W10       30.17R
WILLIAMSBURG*  SUNNY     70  70 100 CALM      30.17R
MIDDLESBORO*   CLEAR     68  68 100 CALM      30.18S
HARLAN APT*    CLOUDY    70  68  94 CALM      30.20R
PIKE CO APT*     N/A     73  71  93 S3        30.17R
BIG SANDY APT* MOSUNNY   74  71  90 S3        30.16R
MOREHEAD APT*  CLOUDY    75  70  83 S6        30.14S
ASHLAND*       CLOUDY    73  72  94 CALM      30.08S
$$

KYZ035-036-041-042-044-050-067-078-099-250900
...CENTRAL KENTUCKY...

CITY           SKY/WX    TMP DP  RH WIND       PRES   REMARKS
MT STERLING*   CLEAR     72  72 100 SW5       30.15R
FLEMING/MASON* PTCLDY    73  70  91 S5        30.12S
DANVILLE*      CLEAR     72  70  94 S5        30.15R
LEXINGTON      CLEAR     73  70  90 S5        30.13R
FRANKFORT      CLEAR     75  71  87 SW6       30.11R
LOUISVILLE     PTCLDY    80  73  79 SW3       30.09R
LEBANON*         N/A     75  72  88 S3        30.13S
GLASGOW*       CLEAR     73  73 100 CALM      30.13R
BOWLING GREEN  CLEAR     75  72  90 CALM      30.12R
$$

KYZ091>093-OHZ055-061-077-WVZ005-015-034-035-042-250900
...SOUTHERN OHIO/WEST VIRGINIA...

CITY           SKY/WX    TMP DP  RH WIND       PRES   REMARKS
COVINGTON      CLOUDY    77  74  90 SW7       30.09R
COLUMBUS       LGT RAIN  72  71  97 SW8       30.05R
DAYTON         MOCLDY    73  71  93 W3        30.08R
WILMINGTON     PTCLDY    75  72  90 SW13      30.07S
HUNTINGTON     CLOUDY    75  71  87 S8        30.10F
CHARLESTON     PTCLDY    73  68  84 CALM      30.12F
PINEVILLE*     CLOUDY    66  63  90 MISG      30.25R FOG
BECKLEY        CLOUDY    68  64  87 SW3       30.23F
BLUEFIELD      CLOUDY    67  62  84 W5        30.26F
LOGAN CO APT*    N/A     72  68  88 CALM      30.16F
$$

VAZ002-007-008-TNZ017-027-036-066-071-250900
...SOUTHWEST VIRGINIA/EAST TENNESSEE...

CITY           SKY/WX    TMP DP  RH WIND       PRES   REMARKS
WISE*          MOCLDY    68  64  88 CALM      30.26S
JONESVILLE*      N/A     68  68 100 CALM      30.22S
ABINGDON*      CLEAR     68  68  99 CALM      30.24S
BRISTOL        PTCLDY    68  66  93 CALM      30.20S
MORRISTOWN*    CLOUDY    72  70  94 CALM      30.19R
SEVIERVILLE*   MOSUNNY   70  70 100 CALM      30.17R
KNOXVILLE      PTCLDY    74  69  85 CALM      30.16S
OAK RIDGE      CLEAR     75  71  87 CALM      30.19R
CROSSVILLE     CLEAR     70  69  97 CALM      30.22R
NASHVILLE      PTCLDY    75  71  87 CALM      30.13R
$$

...KEY TO REMARKS...
VSB - VISIBILITY IN MILES
WCI - WIND CHILL INDEX
HX  - HEAT INDEX

$$




USA.gov is the U.S. government's official web portal to all federal, state and local government web resources and services.